Time,TemperatureF,DewpointF,PressureIn,WindDirection,WindDirectionDegrees,WindSpeedMPH,WindSpeedGustMPH,Humidity,HourlyPrecipIn,Conditions,Clouds,dailyrainin,SoftwareType,DateUTC
2013-06-17 00:00:00,78.3,73.4,29.91,SSE,159,0.0,0.0,85,0.00,,SKC,0.00,VWS V14.01,2013-06-17 05:00:00,
2013-06-17 00:01:00,78.2,73.3,29.91,SSE,159,0.0,0.0,85,0.00,,SKC,0.00,VWS V14.01,2013-06-17 05:01:00,
2013-06-17 00:06:00,78.1,73.6,29.91,SSE,159,0.0,0.0,86,0.00,,SKC,0.00,VWS V14.01,2013-06-17 05:06:00,
2013-06-17 00:10:00,78.1,73.6,29.91,SSE,159,0.0,0.0,86,0.00,,SKC,0.00,VWS V14.01,2013-06-17 05:10:00,
2013-06-17 00:11:00,78.0,73.5,29.91,SSE,159,0.0,0.0,86,0.00,,SKC,0.00,VWS V14.01,2013-06-17 05:11:00,
2013-06-17 00:16:00,77.9,73.7,29.91,SSE,159,0.0,1.0,87,0.00,,SKC,0.00,VWS V14.01,2013-06-17 05:16:00,
2013-06-17 00:20:00,77.9,73.7,29.91,SSE,159,0.0,1.0,87,0.00,,SKC,0.00,VWS V14.01,2013-06-17 05:20:00,
2013-06-17 00:21:00,77.8,73.6,29.91,SSE,159,0.0,0.0,87,0.00,,SKC,0.00,VWS V14.01,2013-06-17 05:21:00,
2013-06-17 00:26:00,77.7,73.5,29.91,SSE,159,0.0,0.0,87,0.00,,SKC,0.00,VWS V14.01,2013-06-17 05:26:00,
2013-06-17 00:30:00,77.7,73.5,29.91,SSE,159,0.0,0.0,87,0.00,,SKC,0.00,VWS V14.01,2013-06-17 05:30:00,
2013-06-17 00:31:00,77.6,73.4,29.92,SSE,159,0.0,0.0,87,0.00,,SKC,0.00,VWS V14.01,2013-06-17 05:31:00,
2013-06-17 00:36:00,77.5,73.7,29.92,SSE,159,0.0,0.0,88,0.00,,SKC,0.00,VWS V14.01,2013-06-17 05:36:00,
2013-06-17 00:40:00,77.5,73.7,29.92,SSE,159,0.0,0.0,88,0.00,,SKC,0.00,VWS V14.01,2013-06-17 05:40:00,
2013-06-17 00:41:00,77.4,73.6,29.91,SSE,159,0.0,0.0,88,0.00,,SKC,0.00,VWS V14.01,2013-06-17 05:41:00,
2013-06-17 00:46:00,77.3,73.5,29.91,SSE,159,0.0,0.0,88,0.00,,SKC,0.00,VWS V14.01,2013-06-17 05:46:00,
2013-06-17 00:50:00,77.3,73.5,29.91,SSE,159,0.0,0.0,88,0.00,,SKC,0.00,VWS V14.01,2013-06-17 05:50:00,
2013-06-17 00:51:00,77.2,73.4,29.91,SSE,159,0.0,0.0,88,0.00,,SKC,0.00,VWS V14.01,2013-06-17 05:51:00,
2013-06-17 00:56:00,77.1,73.6,29.92,SSE,159,0.0,0.0,89,0.00,,SKC,0.00,VWS V14.01,2013-06-17 05:56:00,
2013-06-17 01:00:00,77.1,73.6,29.92,SSE,159,0.0,0.0,89,0.00,,SKC,0.00,VWS V14.01,2013-06-17 06:00:00,
2013-06-17 01:01:00,77.1,73.6,29.92,SSE,159,0.0,0.0,89,0.00,,SKC,0.00,VWS V14.01,2013-06-17 06:01:00,
2013-06-17 01:06:00,76.9,73.4,29.92,SSE,159,0.0,0.0,89,0.00,,SKC,0.00,VWS V14.01,2013-06-17 06:06:00,
2013-06-17 01:10:00,77.0,73.5,29.92,SSE,159,0.0,0.0,89,0.00,,SKC,0.00,VWS V14.01,2013-06-17 06:10:00,
2013-06-17 01:11:00,76.9,73.4,29.92,SSE,159,0.0,0.0,89,0.00,,SKC,0.00,VWS V14.01,2013-06-17 06:11:00,
2013-06-17 01:16:00,76.8,73.3,29.92,SSE,159,0.0,0.0,89,0.00,,SKC,0.00,VWS V14.01,2013-06-17 06:16:00,
2013-06-17 01:20:00,76.8,73.3,29.92,SSE,159,0.0,0.0,89,0.00,,SKC,0.00,VWS V14.01,2013-06-17 06:20:00,
2013-06-17 01:21:00,76.7,73.6,29.92,SSE,159,0.0,0.0,90,0.00,,SKC,0.00,VWS V14.01,2013-06-17 06:21:00,
2013-06-17 01:26:00,76.7,73.6,29.92,SSE,159,0.0,0.0,90,0.00,,SKC,0.00,VWS V14.01,2013-06-17 06:26:00,
2013-06-17 01:30:00,76.7,73.6,29.92,SSE,159,0.0,0.0,90,0.00,,SKC,0.00,VWS V14.01,2013-06-17 06:30:00,
2013-06-17 01:31:00,76.7,73.6,29.92,SSE,159,0.0,0.0,90,0.00,,SKC,0.00,VWS V14.01,2013-06-17 06:31:00,
2013-06-17 01:36:00,76.6,73.4,29.92,SSE,159,0.0,0.0,90,0.00,,SKC,0.00,VWS V14.01,2013-06-17 06:36:00,
2013-06-17 01:40:00,76.6,73.4,29.92,SSE,159,0.0,0.0,90,0.00,,SKC,0.00,VWS V14.01,2013-06-17 06:40:00,
2013-06-17 01:41:00,76.6,73.4,29.92,SSE,159,0.0,0.0,90,0.00,,SKC,0.00,VWS V14.01,2013-06-17 06:41:00,
2013-06-17 01:46:00,76.5,73.3,29.92,SSE,159,0.0,0.0,90,0.00,,SKC,0.00,VWS V14.01,2013-06-17 06:46:00,
2013-06-17 01:50:00,76.5,73.3,29.92,SSE,159,0.0,0.0,90,0.00,,SKC,0.00,VWS V14.01,2013-06-17 06:50:00,
2013-06-17 01:51:00,76.4,73.2,29.92,SSE,159,0.0,0.0,90,0.00,,SKC,0.00,VWS V14.01,2013-06-17 06:51:00,
2013-06-17 01:56:00,76.4,73.6,29.92,SSE,159,0.0,0.0,91,0.00,,SKC,0.00,VWS V14.01,2013-06-17 06:56:00,
2013-06-17 02:00:00,76.4,73.6,29.92,SSE,159,0.0,0.0,91,0.00,,SKC,0.00,VWS V14.01,2013-06-17 07:00:00,
2013-06-17 02:01:00,76.3,73.5,29.91,SSE,159,0.0,0.0,91,0.00,,SKC,0.00,VWS V14.01,2013-06-17 07:01:00,
2013-06-17 02:06:00,76.3,73.5,29.91,SSE,159,0.0,0.0,91,0.00,,SKC,0.00,VWS V14.01,2013-06-17 07:06:00,
2013-06-17 02:10:00,76.2,73.4,29.91,SSE,159,0.0,0.0,91,0.00,,SKC,0.00,VWS V14.01,2013-06-17 07:10:00,
2013-06-17 02:16:00,76.2,73.4,29.91,SSE,159,0.0,0.0,91,0.00,,SKC,0.00,VWS V14.01,2013-06-17 07:16:00,
2013-06-17 02:20:00,76.2,73.4,29.91,SSE,159,0.0,0.0,91,0.00,,SKC,0.00,VWS V14.01,2013-06-17 07:20:00,
2013-06-17 02:21:00,76.2,73.4,29.91,SSE,159,0.0,0.0,91,0.00,,SKC,0.00,VWS V14.01,2013-06-17 07:21:00,
2013-06-17 02:25:00,76.2,73.7,29.91,SSE,159,0.0,0.0,92,0.00,,SKC,0.00,VWS V14.01,2013-06-17 07:25:00,
2013-06-17 02:30:00,76.2,73.7,29.91,SSE,159,0.0,0.0,92,0.00,,SKC,0.00,VWS V14.01,2013-06-17 07:30:00,
2013-06-17 02:36:00,76.2,73.7,29.91,SSE,159,0.0,0.0,92,0.00,,SKC,0.00,VWS V14.01,2013-06-17 07:36:00,
2013-06-17 02:40:00,76.3,73.8,29.91,SSE,159,0.0,0.0,92,0.00,,SKC,0.00,VWS V14.01,2013-06-17 07:40:00,
2013-06-17 02:45:00,76.3,73.8,29.91,SSE,159,0.0,5.0,92,0.00,,SKC,0.00,VWS V14.01,2013-06-17 07:45:00,
2013-06-17 02:50:00,76.4,73.9,29.92,SSE,159,0.0,4.0,92,0.00,,SKC,0.00,VWS V14.01,2013-06-17 07:50:00,
2013-06-17 02:55:00,76.4,73.9,29.91,SSE,159,0.0,4.0,92,0.00,,SKC,0.00,VWS V14.01,2013-06-17 07:55:00,
2013-06-17 03:00:00,76.4,73.9,29.92,SSE,159,0.0,0.0,92,0.00,,SKC,0.00,VWS V14.01,2013-06-17 08:00:00,
2013-06-17 03:05:00,76.4,73.9,29.91,SSE,159,0.0,5.0,92,0.00,,SKC,0.00,VWS V14.01,2013-06-17 08:05:00,
2013-06-17 03:10:00,76.5,74.0,29.91,SSE,159,0.0,2.0,92,0.00,,SKC,0.00,VWS V14.01,2013-06-17 08:10:00,
2013-06-17 03:15:00,76.5,73.7,29.91,SSE,159,4.0,5.0,91,0.00,,SKC,0.00,VWS V14.01,2013-06-17 08:15:00,
2013-06-17 03:20:00,76.5,73.7,29.90,SSE,159,0.0,4.0,91,0.00,,SKC,0.00,VWS V14.01,2013-06-17 08:20:00,
2013-06-17 03:25:00,76.5,73.7,29.90,SSE,159,0.0,4.0,91,0.00,,SKC,0.00,VWS V14.01,2013-06-17 08:25:00,
2013-06-17 03:30:00,76.5,73.7,29.90,SSE,159,0.0,4.0,91,0.00,,SKC,0.00,VWS V14.01,2013-06-17 08:30:00,
2013-06-17 03:35:00,76.5,73.7,29.90,SSE,159,0.0,6.0,91,0.00,,SKC,0.00,VWS V14.01,2013-06-17 08:35:00,
2013-06-17 03:40:00,76.5,73.7,29.90,SSE,159,0.0,0.0,91,0.00,,SKC,0.00,VWS V14.01,2013-06-17 08:40:00,
2013-06-17 03:45:00,76.5,73.7,29.89,SSE,159,0.0,5.0,91,0.00,,SKC,0.00,VWS V14.01,2013-06-17 08:45:00,
2013-06-17 03:50:00,76.5,73.7,29.89,SSE,159,0.0,1.0,91,0.00,,SKC,0.00,VWS V14.01,2013-06-17 08:50:00,
2013-06-17 03:55:00,76.5,73.7,29.89,SSE,159,0.0,5.0,91,0.00,,SKC,0.00,VWS V14.01,2013-06-17 08:55:00,
2013-06-17 04:00:00,76.4,73.6,29.89,SSE,159,0.0,5.0,91,0.00,,SKC,0.00,VWS V14.01,2013-06-17 09:00:00,
2013-06-17 04:05:00,76.4,73.6,29.89,SSE,159,0.0,5.0,91,0.00,,SKC,0.00,VWS V14.01,2013-06-17 09:05:00,
2013-06-17 04:10:00,76.4,73.6,29.89,SSE,159,0.0,5.0,91,0.00,,SKC,0.00,VWS V14.01,2013-06-17 09:10:00,
2013-06-17 04:15:00,76.4,73.6,29.89,SSE,159,0.0,5.0,91,0.00,,SKC,0.00,VWS V14.01,2013-06-17 09:15:00,
2013-06-17 04:20:00,76.3,73.5,29.88,SSE,159,0.0,1.0,91,0.00,,SKC,0.00,VWS V14.01,2013-06-17 09:20:00,
2013-06-17 04:25:00,76.3,73.5,29.89,SSE,159,0.0,1.0,91,0.00,,SKC,0.00,VWS V14.01,2013-06-17 09:25:00,
2013-06-17 04:30:00,76.3,73.5,29.88,SSE,159,0.0,4.0,91,0.00,,SKC,0.00,VWS V14.01,2013-06-17 09:30:00,
2013-06-17 04:35:00,76.3,73.5,29.88,SSE,159,0.0,4.0,91,0.00,,SKC,0.00,VWS V14.01,2013-06-17 09:35:00,
2013-06-17 04:40:00,76.3,73.5,29.88,SSE,159,0.0,1.0,91,0.00,,SKC,0.00,VWS V14.01,2013-06-17 09:40:00,
2013-06-17 04:45:00,76.4,73.6,29.89,SSE,159,0.0,1.0,91,0.00,,SKC,0.00,VWS V14.01,2013-06-17 09:45:00,
2013-06-17 04:50:00,76.4,73.6,29.89,SSE,159,0.0,4.0,91,0.00,,SKC,0.00,VWS V14.01,2013-06-17 09:50:00,
2013-06-17 04:55:00,76.4,73.2,29.89,SSE,159,0.0,4.0,90,0.00,,SKC,0.00,VWS V14.01,2013-06-17 09:55:00,
2013-06-17 05:00:00,76.5,73.3,29.89,SSE,159,2.0,5.0,90,0.00,,SKC,0.00,VWS V14.01,2013-06-17 10:00:00,
2013-06-17 05:05:00,76.5,73.3,29.90,SSE,159,0.0,7.0,90,0.00,,SKC,0.00,VWS V14.01,2013-06-17 10:05:00,
2013-06-17 05:10:00,76.5,73.3,29.90,SSE,160,0.0,5.0,90,0.00,,SKC,0.00,VWS V14.01,2013-06-17 10:10:00,
2013-06-17 05:15:00,76.6,73.1,29.90,SSE,164,0.0,7.0,89,0.00,,SKC,0.00,VWS V14.01,2013-06-17 10:15:00,
2013-06-17 05:20:00,76.7,73.2,29.90,SSE,165,0.0,6.0,89,0.00,,SKC,0.00,VWS V14.01,2013-06-17 10:20:00,
2013-06-17 05:25:00,76.7,73.2,29.90,SSE,165,0.0,6.0,89,0.00,,SKC,0.00,VWS V14.01,2013-06-17 10:25:00,
2013-06-17 05:30:00,76.7,72.9,29.90,SSE,165,0.0,7.0,88,0.00,,SKC,0.00,VWS V14.01,2013-06-17 10:30:00,
2013-06-17 05:35:00,76.7,72.9,29.90,SSE,165,0.0,7.0,88,0.00,,SKC,0.00,VWS V14.01,2013-06-17 10:35:00,
2013-06-17 05:40:00,76.7,72.9,29.91,SSE,165,0.0,6.0,88,0.00,,SKC,0.00,VWS V14.01,2013-06-17 10:40:00,
2013-06-17 05:45:00,76.7,72.9,29.91,SSE,165,0.0,6.0,88,0.00,,SKC,0.00,VWS V14.01,2013-06-17 10:45:00,
2013-06-17 05:50:00,76.7,72.9,29.91,SSE,165,0.0,0.0,88,0.00,,SKC,0.00,VWS V14.01,2013-06-17 10:50:00,
2013-06-17 05:55:00,76.7,72.9,29.92,SSE,165,0.0,0.0,88,0.00,,SKC,0.00,VWS V14.01,2013-06-17 10:55:00,
2013-06-17 06:00:00,76.7,72.9,29.92,SSE,165,0.0,0.0,88,0.00,,SKC,0.00,VWS V14.01,2013-06-17 11:00:00,
2013-06-17 06:05:00,76.7,72.9,29.91,SSE,165,0.0,0.0,88,0.00,,SKC,0.00,VWS V14.01,2013-06-17 11:05:00,
2013-06-17 06:10:00,76.7,72.9,29.91,SSE,165,0.0,0.0,88,0.00,,SKC,0.00,VWS V14.01,2013-06-17 11:10:00,
2013-06-17 06:15:00,76.6,72.8,29.91,SSE,165,0.0,0.0,88,0.00,,SKC,0.00,VWS V14.01,2013-06-17 11:15:00,
2013-06-17 06:20:00,76.6,72.8,29.91,SSE,165,0.0,0.0,88,0.00,,SKC,0.00,VWS V14.01,2013-06-17 11:20:00,
2013-06-17 06:25:00,76.6,72.8,29.91,SSE,165,0.0,0.0,88,0.00,,SKC,0.00,VWS V14.01,2013-06-17 11:25:00,
2013-06-17 06:30:00,76.6,72.8,29.91,SSE,165,0.0,0.0,88,0.00,,SKC,0.00,VWS V14.01,2013-06-17 11:30:00,
2013-06-17 06:35:00,76.5,73.0,29.91,SSE,165,0.0,0.0,89,0.00,,SKC,0.00,VWS V14.01,2013-06-17 11:35:00,
2013-06-17 06:40:00,76.6,73.1,29.91,SSE,165,0.0,0.0,89,0.00,,SKC,0.00,VWS V14.01,2013-06-17 11:40:00,
2013-06-17 06:45:00,76.6,73.1,29.92,SSE,165,0.0,1.0,89,0.00,,SKC,0.00,VWS V14.01,2013-06-17 11:45:00,
2013-06-17 06:50:00,76.6,73.1,29.92,SSE,165,0.0,0.0,89,0.00,,SKC,0.00,VWS V14.01,2013-06-17 11:50:00,
2013-06-17 06:55:00,76.6,72.8,29.92,SSE,165,0.0,5.0,88,0.00,,SKC,0.00,VWS V14.01,2013-06-17 11:55:00,
2013-06-17 07:00:00,76.7,73.2,29.92,SSE,165,0.0,0.0,89,0.00,,SKC,0.00,VWS V14.01,2013-06-17 12:00:00,
2013-06-17 07:05:00,76.7,73.2,29.92,SSE,165,0.0,1.0,89,0.00,,SKC,0.00,VWS V14.01,2013-06-17 12:05:00,
2013-06-17 07:10:00,76.7,73.2,29.92,SSE,165,0.0,0.0,89,0.00,,SKC,0.00,VWS V14.01,2013-06-17 12:10:00,
2013-06-17 07:15:00,76.8,73.3,29.92,SSE,165,0.0,0.0,89,0.00,,SKC,0.00,VWS V14.01,2013-06-17 12:15:00,
2013-06-17 07:20:00,76.9,73.4,29.92,SSE,165,0.0,0.0,89,0.00,,SKC,0.00,VWS V14.01,2013-06-17 12:20:00,
2013-06-17 07:25:00,76.9,73.4,29.92,SSE,165,0.0,0.0,89,0.00,,SKC,0.00,VWS V14.01,2013-06-17 12:25:00,
2013-06-17 07:30:00,77.0,73.5,29.92,SSE,165,0.0,0.0,89,0.00,,SKC,0.00,VWS V14.01,2013-06-17 12:30:00,
2013-06-17 07:35:00,77.1,73.6,29.93,SSE,165,0.0,0.0,89,0.00,,SKC,0.00,VWS V14.01,2013-06-17 12:35:00,
2013-06-17 07:40:00,77.2,73.7,29.92,SSE,165,0.0,0.0,89,0.00,,SKC,0.00,VWS V14.01,2013-06-17 12:40:00,
2013-06-17 07:45:00,77.3,73.8,29.92,SSE,165,0.0,1.0,89,0.00,,SKC,0.00,VWS V14.01,2013-06-17 12:45:00,
2013-06-17 07:50:00,77.4,73.9,29.92,SSE,165,2.0,4.0,89,0.00,,SKC,0.00,VWS V14.01,2013-06-17 12:50:00,
2013-06-17 07:55:00,77.5,74.0,29.92,SSE,165,0.0,4.0,89,0.00,,SKC,0.00,VWS V14.01,2013-06-17 12:55:00,
2013-06-17 08:00:00,77.7,74.2,29.92,SSE,165,0.0,1.0,89,0.00,,SKC,0.00,VWS V14.01,2013-06-17 13:00:00,
2013-06-17 08:05:00,77.9,74.1,29.93,SSE,165,0.0,7.0,88,0.00,,SKC,0.00,VWS V14.01,2013-06-17 13:05:00,
2013-06-17 08:10:00,78.1,74.3,29.92,SSE,165,0.0,6.0,88,0.00,,SKC,0.00,VWS V14.01,2013-06-17 13:10:00,
2013-06-17 08:15:00,78.3,74.5,29.92,South,170,0.0,9.0,88,0.00,,SKC,0.00,VWS V14.01,2013-06-17 13:15:00,
2013-06-17 08:20:00,78.5,74.7,29.92,South,170,0.0,9.0,88,0.00,,SKC,0.00,VWS V14.01,2013-06-17 13:20:00,
2013-06-17 08:25:00,78.7,74.5,29.93,South,170,0.0,9.0,87,0.00,,SKC,0.00,VWS V14.01,2013-06-17 13:25:00,
2013-06-17 08:30:00,79.0,74.8,29.93,South,170,0.0,3.0,87,0.00,,SKC,0.00,VWS V14.01,2013-06-17 13:30:00,
2013-06-17 08:35:00,79.2,74.7,29.93,South,169,0.0,8.0,86,0.00,,SKC,0.00,VWS V14.01,2013-06-17 13:35:00,
2013-06-17 08:40:00,79.3,74.8,29.93,South,170,0.0,6.0,86,0.00,,SKC,0.00,VWS V14.01,2013-06-17 13:40:00,
2013-06-17 08:45:00,79.4,74.5,29.93,South,170,0.0,9.0,85,0.00,,SKC,0.00,VWS V14.01,2013-06-17 13:45:00,
2013-06-17 08:50:00,79.5,74.6,29.94,South,170,3.0,6.0,85,0.00,,SKC,0.00,VWS V14.01,2013-06-17 13:50:00,
2013-06-17 08:55:00,79.6,74.7,29.94,South,173,0.0,6.0,85,0.00,,SKC,0.00,VWS V14.01,2013-06-17 13:55:00,
2013-06-17 09:00:00,79.9,75.0,29.94,South,173,0.0,5.0,85,0.00,,SKC,0.00,VWS V14.01,2013-06-17 14:00:00,
2013-06-17 09:05:00,80.2,74.9,29.93,South,173,4.0,6.0,84,0.00,,SKC,0.00,VWS V14.01,2013-06-17 14:05:00,
2013-06-17 09:10:00,80.5,74.9,29.93,South,172,5.0,9.0,83,0.00,,SKC,0.00,VWS V14.01,2013-06-17 14:10:00,
2013-06-17 09:15:00,80.7,75.1,29.93,South,174,0.0,9.0,83,0.00,,SKC,0.00,VWS V14.01,2013-06-17 14:15:00,
2013-06-17 09:20:00,81.0,75.3,29.93,South,173,0.0,8.0,83,0.00,,SKC,0.00,VWS V14.01,2013-06-17 14:20:00,
2013-06-17 09:25:00,81.2,74.8,29.94,South,172,0.0,8.0,81,0.00,,SKC,0.00,VWS V14.01,2013-06-17 14:25:00,
2013-06-17 09:30:00,81.3,74.9,29.94,South,174,1.0,8.0,81,0.00,,SKC,0.00,VWS V14.01,2013-06-17 14:30:00,
2013-06-17 09:35:00,81.3,74.9,29.94,South,175,0.0,8.0,81,0.00,,SKC,0.00,VWS V14.01,2013-06-17 14:35:00,
2013-06-17 09:40:00,81.4,75.0,29.94,South,175,0.0,1.0,81,0.00,,SKC,0.00,VWS V14.01,2013-06-17 14:40:00,
2013-06-17 09:45:00,81.3,74.9,29.94,South,175,4.0,5.0,81,0.00,,SKC,0.00,VWS V14.01,2013-06-17 14:45:00,
2013-06-17 09:50:00,81.4,75.0,29.94,South,175,1.0,3.0,81,0.00,,SKC,0.00,VWS V14.01,2013-06-17 14:50:00,
2013-06-17 09:55:00,81.6,74.8,29.94,South,174,0.0,4.0,80,0.00,,SKC,0.00,VWS V14.01,2013-06-17 14:55:00,
2013-06-17 10:00:00,82.5,75.3,29.94,South,176,0.0,9.0,79,0.00,,SKC,0.00,VWS V14.01,2013-06-17 15:00:00,
2013-06-17 10:05:00,83.2,74.8,29.94,South,185,0.0,9.0,76,0.00,,SKC,0.00,VWS V14.01,2013-06-17 15:05:00,
2013-06-17 10:10:00,83.5,74.8,29.95,SSW,193,0.0,11.0,75,0.00,,SKC,0.00,VWS V14.01,2013-06-17 15:10:00,
2013-06-17 10:15:00,83.6,74.8,29.95,SSW,193,0.0,11.0,75,0.00,,SKC,0.00,VWS V14.01,2013-06-17 15:15:00,
2013-06-17 10:20:00,83.8,74.6,29.95,SSW,193,0.0,3.0,74,0.00,,SKC,0.00,VWS V14.01,2013-06-17 15:20:00,
2013-06-17 10:25:00,84.4,75.2,29.95,SSW,193,0.0,3.0,74,0.00,,SKC,0.00,VWS V14.01,2013-06-17 15:25:00,
2013-06-17 10:30:00,85.1,75.5,29.95,SSW,193,0.0,4.0,73,0.00,,SKC,0.00,VWS V14.01,2013-06-17 15:30:00,
2013-06-17 10:35:00,85.7,75.2,29.95,SSW,192,0.0,7.0,71,0.00,,SKC,0.00,VWS V14.01,2013-06-17 15:35:00,
2013-06-17 10:40:00,86.3,74.9,29.95,South,187,0.0,9.0,69,0.00,,SKC,0.00,VWS V14.01,2013-06-17 15:40:00,
2013-06-17 10:45:00,86.8,75.4,29.95,South,186,0.0,9.0,69,0.00,,SKC,0.00,VWS V14.01,2013-06-17 15:45:00,
2013-06-17 10:50:00,87.3,74.6,29.95,SSW,194,2.0,9.0,66,0.00,,SKC,0.00,VWS V14.01,2013-06-17 15:50:00,
2013-06-17 10:55:00,87.5,74.8,29.95,SSW,194,0.0,9.0,66,0.00,,SKC,0.00,VWS V14.01,2013-06-17 15:55:00,
2013-06-17 11:00:00,88.1,75.3,29.96,South,185,4.0,8.0,66,0.00,,SKC,0.00,VWS V14.01,2013-06-17 16:00:00,
2013-06-17 11:05:00,88.5,75.2,29.96,South,185,0.0,8.0,65,0.00,,SKC,0.00,VWS V14.01,2013-06-17 16:05:00,
2013-06-17 11:10:00,88.8,74.6,29.95,South,184,1.0,8.0,63,0.00,,SKC,0.00,VWS V14.01,2013-06-17 16:10:00,
2013-06-17 11:15:00,88.9,75.2,29.96,South,182,4.0,8.0,64,0.00,,SKC,0.00,VWS V14.01,2013-06-17 16:15:00,
2013-06-17 11:20:00,88.9,75.2,29.95,South,186,0.0,8.0,64,0.00,,SKC,0.00,VWS V14.01,2013-06-17 16:20:00,
2013-06-17 11:25:00,89.0,75.7,29.95,South,186,0.0,8.0,65,0.00,,SKC,0.00,VWS V14.01,2013-06-17 16:25:00,
2013-06-17 11:30:00,89.2,74.5,29.96,South,186,0.0,8.0,62,0.00,,SKC,0.00,VWS V14.01,2013-06-17 16:30:00,
2013-06-17 11:35:00,89.4,75.6,29.95,South,184,4.0,8.0,64,0.00,,SKC,0.00,VWS V14.01,2013-06-17 16:35:00,
2013-06-17 11:40:00,89.6,74.9,29.95,South,182,0.0,3.0,62,0.00,,SKC,0.00,VWS V14.01,2013-06-17 16:40:00,
2013-06-17 11:45:00,89.6,74.4,29.95,South,180,2.0,7.0,61,0.00,,SKC,0.00,VWS V14.01,2013-06-17 16:45:00,
2013-06-17 11:50:00,89.7,74.0,29.95,South,185,2.0,9.0,60,0.00,,SKC,0.00,VWS V14.01,2013-06-17 16:50:00,
2013-06-17 11:55:00,89.6,73.9,29.95,South,187,4.0,9.0,60,0.00,,SKC,0.00,VWS V14.01,2013-06-17 16:55:00,
2013-06-17 12:00:00,89.7,75.0,29.95,South,187,0.0,9.0,62,0.00,,SKC,0.00,VWS V14.01,2013-06-17 17:00:00,
2013-06-17 12:05:00,89.9,75.1,29.95,South,187,0.0,9.0,62,0.00,,SKC,0.00,VWS V14.01,2013-06-17 17:05:00,
2013-06-17 12:10:00,89.9,74.2,29.94,South,186,2.0,7.0,60,0.00,,SKC,0.00,VWS V14.01,2013-06-17 17:10:00,
2013-06-17 12:15:00,89.9,74.7,29.94,South,184,0.0,7.0,61,0.00,,SKC,0.00,VWS V14.01,2013-06-17 17:15:00,
2013-06-17 12:20:00,90.1,73.8,29.94,South,182,4.0,5.0,59,0.00,,SKC,0.00,VWS V14.01,2013-06-17 17:20:00,
2013-06-17 12:25:00,90.4,73.6,29.94,South,184,0.0,7.0,58,0.00,,SKC,0.00,VWS V14.01,2013-06-17 17:25:00,
2013-06-17 12:30:00,90.7,74.9,29.94,South,184,0.0,4.0,60,0.00,,SKC,0.00,VWS V14.01,2013-06-17 17:30:00,
2013-06-17 12:35:00,91.1,75.8,29.93,SSW,192,7.0,10.0,61,0.00,,SKC,0.00,VWS V14.01,2013-06-17 17:35:00,
2013-06-17 12:40:00,91.3,75.0,29.93,South,186,1.0,9.0,59,0.00,,SKC,0.00,VWS V14.01,2013-06-17 17:40:00,
2013-06-17 12:45:00,91.5,74.7,29.93,South,184,9.0,9.0,58,0.00,,SKC,0.00,VWS V14.01,2013-06-17 17:45:00,
2013-06-17 12:50:00,91.7,74.3,29.93,South,182,4.0,5.0,57,0.00,,SKC,0.00,VWS V14.01,2013-06-17 17:50:00,
2013-06-17 12:55:00,91.8,74.9,29.93,South,181,0.0,5.0,58,0.00,,SKC,0.00,VWS V14.01,2013-06-17 17:55:00,
2013-06-17 13:00:00,91.9,74.5,29.92,South,184,0.0,9.0,57,0.00,,SKC,0.00,VWS V14.01,2013-06-17 18:00:00,
2013-06-17 13:05:00,91.8,73.9,29.92,South,178,0.0,10.0,56,0.00,,SKC,0.00,VWS V14.01,2013-06-17 18:05:00,
2013-06-17 13:10:00,91.7,74.3,29.92,South,180,0.0,7.0,57,0.00,,SKC,0.00,VWS V14.01,2013-06-17 18:10:00,
2013-06-17 13:15:00,91.9,75.0,29.92,South,174,2.0,7.0,58,0.00,,SKC,0.00,VWS V14.01,2013-06-17 18:15:00,
2013-06-17 13:20:00,92.1,73.6,29.91,South,173,0.0,8.0,55,0.00,,SKC,0.00,VWS V14.01,2013-06-17 18:20:00,
2013-06-17 13:25:00,92.2,73.2,29.91,South,170,0.0,10.0,54,0.00,,SKC,0.00,VWS V14.01,2013-06-17 18:25:00,
2013-06-17 13:30:00,92.3,73.8,29.91,South,172,3.0,9.0,55,0.00,,SKC,0.00,VWS V14.01,2013-06-17 18:30:00,
2013-06-17 13:35:00,92.4,73.9,29.91,South,172,4.0,9.0,55,0.00,,SKC,0.00,VWS V14.01,2013-06-17 18:35:00,
2013-06-17 13:40:00,92.5,74.5,29.91,South,171,0.0,6.0,56,0.00,,SKC,0.00,VWS V14.01,2013-06-17 18:40:00,
2013-06-17 13:45:00,92.6,73.5,29.91,South,172,0.0,6.0,54,0.00,,SKC,0.00,VWS V14.01,2013-06-17 18:45:00,
2013-06-17 13:50:00,92.6,73.0,29.91,SSE,165,2.0,9.0,53,0.00,,SKC,0.00,VWS V14.01,2013-06-17 18:50:00,
2013-06-17 13:55:00,92.6,73.5,29.91,South,171,2.0,9.0,54,0.00,,SKC,0.00,VWS V14.01,2013-06-17 18:55:00,
2013-06-17 14:00:00,92.8,73.7,29.90,South,169,0.0,9.0,54,0.00,,SKC,0.00,VWS V14.01,2013-06-17 19:00:00,
2013-06-17 14:05:00,93.0,74.5,29.90,South,169,2.0,9.0,55,0.00,,SKC,0.00,VWS V14.01,2013-06-17 19:05:00,
2013-06-17 14:10:00,93.1,73.4,29.89,SSE,168,2.0,7.0,53,0.00,,SKC,0.00,VWS V14.01,2013-06-17 19:10:00,
2013-06-17 14:15:00,93.0,73.3,29.89,South,185,0.0,11.0,53,0.00,,SKC,0.00,VWS V14.01,2013-06-17 19:15:00,
2013-06-17 14:20:00,92.9,72.7,29.89,SSE,167,1.0,12.0,52,0.00,,SKC,0.00,VWS V14.01,2013-06-17 19:20:00,
2013-06-17 14:25:00,92.9,72.1,29.89,SSE,166,7.0,12.0,51,0.00,,SKC,0.00,VWS V14.01,2013-06-17 19:25:00,
2013-06-17 14:30:00,93.0,72.8,29.89,SSE,167,3.0,9.0,52,0.00,,SKC,0.00,VWS V14.01,2013-06-17 19:30:00,
2013-06-17 14:35:00,93.4,73.7,29.89,SSE,167,3.0,9.0,53,0.00,,SKC,0.00,VWS V14.01,2013-06-17 19:35:00,
2013-06-17 14:40:00,93.6,73.3,29.89,SSE,167,6.0,8.0,52,0.00,,SKC,0.00,VWS V14.01,2013-06-17 19:40:00,
2013-06-17 14:45:00,93.6,73.3,29.89,SSE,168,5.0,9.0,52,0.00,,SKC,0.00,VWS V14.01,2013-06-17 19:45:00,
2013-06-17 14:50:00,93.5,73.8,29.88,South,172,6.0,8.0,53,0.00,,SKC,0.00,VWS V14.01,2013-06-17 19:50:00,
2013-06-17 14:55:00,93.5,73.2,29.88,SSE,168,3.0,8.0,52,0.00,,SKC,0.00,VWS V14.01,2013-06-17 19:55:00,
2013-06-17 15:00:00,93.6,73.9,29.88,South,173,9.0,9.0,53,0.00,,SKC,0.00,VWS V14.01,2013-06-17 20:00:00,
2013-06-17 15:05:00,93.7,74.0,29.87,South,173,0.0,9.0,53,0.00,,SKC,0.00,VWS V14.01,2013-06-17 20:05:00,
2013-06-17 15:10:00,94.1,73.8,29.87,South,172,4.0,10.0,52,0.00,,SKC,0.00,VWS V14.01,2013-06-17 20:10:00,
2013-06-17 15:15:00,94.2,72.7,29.87,South,171,2.0,10.0,50,0.00,,SKC,0.00,VWS V14.01,2013-06-17 20:15:00,
2013-06-17 15:20:00,94.2,73.3,29.87,SSE,163,2.0,8.0,51,0.00,,SKC,0.00,VWS V14.01,2013-06-17 20:20:00,
2013-06-17 15:25:00,94.2,73.9,29.87,SSE,163,0.0,8.0,52,0.00,,SKC,0.00,VWS V14.01,2013-06-17 20:25:00,
2013-06-17 15:30:00,94.4,73.5,29.87,SSE,161,1.0,7.0,51,0.00,,SKC,0.00,VWS V14.01,2013-06-17 20:30:00,
2013-06-17 15:35:00,94.4,73.5,29.86,SSE,165,1.0,12.0,51,0.00,,SKC,0.00,VWS V14.01,2013-06-17 20:35:00,
2013-06-17 15:40:00,94.6,72.5,29.86,SSE,165,0.0,8.0,49,0.00,,SKC,0.00,VWS V14.01,2013-06-17 20:40:00,
2013-06-17 15:45:00,94.7,72.6,29.86,SSE,165,5.0,8.0,49,0.00,,SKC,0.00,VWS V14.01,2013-06-17 20:45:00,
2013-06-17 15:50:00,94.9,72.8,29.85,South,186,1.0,10.0,49,0.00,,SKC,0.00,VWS V14.01,2013-06-17 20:50:00,
2013-06-17 15:55:00,94.9,72.8,29.85,South,179,3.0,10.0,49,0.00,,SKC,0.00,VWS V14.01,2013-06-17 20:55:00,
2013-06-17 16:00:00,94.8,72.7,29.85,SSE,167,2.0,12.0,49,0.00,,SKC,0.00,VWS V14.01,2013-06-17 21:00:00,
2013-06-17 16:05:00,94.7,73.2,29.85,SSE,165,2.0,12.0,50,0.00,,SKC,0.00,VWS V14.01,2013-06-17 21:05:00,
2013-06-17 16:10:00,94.8,72.7,29.85,South,179,5.0,9.0,49,0.00,,SKC,0.00,VWS V14.01,2013-06-17 21:10:00,
2013-06-17 16:15:00,94.9,72.8,29.85,South,175,0.0,9.0,49,0.00,,SKC,0.00,VWS V14.01,2013-06-17 21:15:00,
2013-06-17 16:20:00,95.1,72.3,29.85,South,179,0.0,9.0,48,0.00,,SKC,0.00,VWS V14.01,2013-06-17 21:20:00,
2013-06-17 16:25:00,95.3,73.1,29.84,South,179,0.0,9.0,49,0.00,,SKC,0.00,VWS V14.01,2013-06-17 21:25:00,
2013-06-17 16:29:00,95.4,73.8,29.84,South,175,0.0,8.0,50,0.00,,SKC,0.00,VWS V14.01,2013-06-17 21:29:00,
2013-06-17 16:30:00,95.3,73.1,29.84,South,178,2.0,9.0,49,0.00,,SKC,0.00,VWS V14.01,2013-06-17 21:30:00,
2013-06-17 16:34:00,95.6,72.8,29.84,South,169,0.0,11.0,48,0.00,,SKC,0.00,VWS V14.01,2013-06-17 21:34:00,
2013-06-17 16:39:00,95.6,72.8,29.84,South,170,4.0,8.0,48,0.00,,SKC,0.00,VWS V14.01,2013-06-17 21:39:00,
2013-06-17 16:40:00,95.6,72.2,29.84,South,169,1.0,11.0,47,0.00,,SKC,0.00,VWS V14.01,2013-06-17 21:40:00,
2013-06-17 16:44:00,95.5,72.1,29.84,South,169,0.0,9.0,47,0.00,,SKC,0.00,VWS V14.01,2013-06-17 21:44:00,
2013-06-17 16:49:00,95.3,71.3,29.84,SSE,165,0.0,7.0,46,0.00,,SKC,0.00,VWS V14.01,2013-06-17 21:49:00,
2013-06-17 16:50:00,95.4,72.6,29.84,South,169,3.0,9.0,48,0.00,,SKC,0.00,VWS V14.01,2013-06-17 21:50:00,
2013-06-17 16:54:00,95.3,71.9,29.84,SSE,165,0.0,11.0,47,0.00,,SKC,0.00,VWS V14.01,2013-06-17 21:54:00,
2013-06-17 16:59:00,95.3,71.3,29.83,SSE,166,4.0,6.0,46,0.00,,SKC,0.00,VWS V14.01,2013-06-17 21:59:00,
2013-06-17 17:00:00,95.3,71.3,29.84,SSE,165,0.0,11.0,46,0.00,,SKC,0.00,VWS V14.01,2013-06-17 22:00:00,
2013-06-17 17:07:00,95.5,71.4,29.83,SSE,163,0.0,0.0,46,0.00,,SKC,0.00,VWS V14.01,2013-06-17 22:07:00,
2013-06-17 17:10:00,94.8,72.7,29.85,SSE,165,4.0,12.0,49,0.00,,SKC,0.00,VWS V14.01,2013-06-17 22:10:00,
2013-06-17 17:12:00,95.6,71.5,29.83,SSE,163,3.0,7.0,46,0.00,,SKC,0.00,VWS V14.01,2013-06-17 22:12:00,
2013-06-17 17:17:00,95.6,71.5,29.83,SSE,163,5.0,6.0,46,0.00,,SKC,0.00,VWS V14.01,2013-06-17 22:17:00,
2013-06-17 17:20:00,95.7,71.6,29.83,SSE,163,0.0,9.0,46,0.00,,SKC,0.00,VWS V14.01,2013-06-17 22:20:00,
2013-06-17 17:22:00,95.6,69.6,29.83,SSE,161,3.0,9.0,43,0.00,,SKC,0.00,VWS V14.01,2013-06-17 22:22:00,
2013-06-17 17:27:00,95.6,68.9,29.82,SSE,161,5.0,5.0,42,0.00,,SKC,0.00,VWS V14.01,2013-06-17 22:27:00,
2013-06-17 17:30:00,95.6,69.6,29.82,SSE,161,0.0,9.0,43,0.00,,SKC,0.00,VWS V14.01,2013-06-17 22:30:00,
2013-06-17 17:32:00,95.7,69.6,29.82,SSE,162,1.0,8.0,43,0.00,,SKC,0.00,VWS V14.01,2013-06-17 22:32:00,
2013-06-17 17:37:00,95.7,68.9,29.83,SSE,165,0.0,5.0,42,0.00,,SKC,0.00,VWS V14.01,2013-06-17 22:37:00,
2013-06-17 17:40:00,95.7,69.6,29.82,SSE,165,1.0,8.0,43,0.00,,SKC,0.00,VWS V14.01,2013-06-17 22:40:00,
2013-06-17 17:42:00,95.6,68.2,29.82,SSE,165,1.0,6.0,41,0.00,,SKC,0.00,VWS V14.01,2013-06-17 22:42:00,
2013-06-17 17:47:00,95.5,67.4,29.82,South,169,8.0,9.0,40,0.00,,SKC,0.00,VWS V14.01,2013-06-17 22:47:00,
2013-06-17 17:50:00,95.5,67.4,29.82,SSE,165,3.0,7.0,40,0.00,,SKC,0.00,VWS V14.01,2013-06-17 22:50:00,
2013-06-17 17:52:00,95.2,69.2,29.82,South,170,0.0,9.0,43,0.00,,SKC,0.00,VWS V14.01,2013-06-17 22:52:00,
2013-06-17 17:57:00,95.2,69.2,29.82,South,171,0.0,8.0,43,0.00,,SKC,0.00,VWS V14.01,2013-06-17 22:57:00,
2013-06-17 18:00:00,95.2,68.5,29.82,South,170,1.0,9.0,42,0.00,,SKC,0.00,VWS V14.01,2013-06-17 23:00:00,
2013-06-17 18:02:00,95.1,68.4,29.82,South,169,3.0,9.0,42,0.00,,SKC,0.00,VWS V14.01,2013-06-17 23:02:00,
2013-06-17 18:07:00,94.9,68.9,29.82,SSE,168,2.0,7.0,43,0.00,,SKC,0.00,VWS V14.01,2013-06-17 23:07:00,
2013-06-17 18:10:00,95.0,69.0,29.82,South,169,0.0,9.0,43,0.00,,SKC,0.00,VWS V14.01,2013-06-17 23:10:00,
2013-06-17 18:12:00,94.8,68.8,29.81,South,169,1.0,7.0,43,0.00,,SKC,0.00,VWS V14.01,2013-06-17 23:12:00,
2013-06-17 18:17:00,94.6,68.7,29.81,South,169,0.0,5.0,43,0.00,,SKC,0.00,VWS V14.01,2013-06-17 23:17:00,
2013-06-17 18:20:00,94.7,68.7,29.81,South,169,3.0,8.0,43,0.00,,SKC,0.00,VWS V14.01,2013-06-17 23:20:00,
2013-06-17 18:22:00,94.5,68.6,29.81,SSE,168,0.0,6.0,43,0.00,,SKC,0.00,VWS V14.01,2013-06-17 23:22:00,
2013-06-17 18:27:00,94.3,68.4,29.81,SSE,167,0.0,5.0,43,0.00,,SKC,0.00,VWS V14.01,2013-06-17 23:27:00,
2013-06-17 18:30:00,94.3,68.4,29.81,SSE,167,0.0,9.0,43,0.00,,SKC,0.00,VWS V14.01,2013-06-17 23:30:00,
2013-06-17 18:32:00,94.2,68.3,29.81,SSE,165,1.0,8.0,43,0.00,,SKC,0.00,VWS V14.01,2013-06-17 23:32:00,
2013-06-17 18:37:00,94.1,68.9,29.81,SSE,164,0.0,2.0,44,0.00,,SKC,0.00,VWS V14.01,2013-06-17 23:37:00,
2013-06-17 18:40:00,94.2,68.3,29.81,SSE,164,2.0,8.0,43,0.00,,SKC,0.00,VWS V14.01,2013-06-17 23:40:00,
2013-06-17 18:42:00,94.1,68.9,29.81,SSE,163,5.0,9.0,44,0.00,,SKC,0.00,VWS V14.01,2013-06-17 23:42:00,
2013-06-17 18:47:00,94.0,68.8,29.81,SSE,163,1.0,6.0,44,0.00,,SKC,0.00,VWS V14.01,2013-06-17 23:47:00,
2013-06-17 18:50:00,94.0,68.8,29.81,SSE,163,2.0,9.0,44,0.00,,SKC,0.00,VWS V14.01,2013-06-17 23:50:00,
2013-06-17 18:52:00,93.9,69.3,29.81,SSE,163,1.0,6.0,45,0.00,,SKC,0.00,VWS V14.01,2013-06-17 23:52:00,
2013-06-17 18:57:00,93.8,68.6,29.81,SSE,163,5.0,6.0,44,0.00,,SKC,0.00,VWS V14.01,2013-06-17 23:57:00,
2013-06-17 19:00:00,93.8,68.6,29.81,SSE,163,0.0,6.0,44,0.00,,SKC,0.00,VWS V14.01,2013-06-18 00:00:00,
2013-06-17 19:02:00,93.7,69.2,29.81,SSE,163,0.0,6.0,45,0.00,,SKC,0.00,VWS V14.01,2013-06-18 00:02:00,
2013-06-17 19:07:00,93.6,69.7,29.81,SSE,163,0.0,5.0,46,0.00,,SKC,0.00,VWS V14.01,2013-06-18 00:07:00,
2013-06-17 19:10:00,93.6,69.7,29.81,SSE,163,0.0,6.0,46,0.00,,SKC,0.00,VWS V14.01,2013-06-18 00:10:00,
2013-06-17 19:12:00,93.4,70.2,29.81,SSE,163,0.0,5.0,47,0.00,,SKC,0.00,VWS V14.01,2013-06-18 00:12:00,
2013-06-17 19:17:00,93.3,68.8,29.80,SSE,163,0.0,4.0,45,0.00,,SKC,0.00,VWS V14.01,2013-06-18 00:17:00,
2013-06-17 19:20:00,93.3,69.4,29.81,SSE,163,0.0,5.0,46,0.00,,SKC,0.00,VWS V14.01,2013-06-18 00:20:00,
2013-06-17 19:22:00,93.1,69.3,29.80,SSE,163,0.0,7.0,46,0.00,,SKC,0.00,VWS V14.01,2013-06-18 00:22:00,
2013-06-17 19:27:00,93.0,69.8,29.81,SSE,163,0.0,0.0,47,0.00,,SKC,0.00,VWS V14.01,2013-06-18 00:27:00,
2013-06-17 19:30:00,93.0,69.8,29.81,SSE,163,0.0,7.0,47,0.00,,SKC,0.00,VWS V14.01,2013-06-18 00:30:00,
2013-06-17 19:32:00,92.8,70.2,29.81,SSE,163,0.0,7.0,48,0.00,,SKC,0.00,VWS V14.01,2013-06-18 00:32:00,
2013-06-17 19:37:00,92.6,70.1,29.81,SSE,163,0.0,0.0,48,0.00,,SKC,0.00,VWS V14.01,2013-06-18 00:37:00,
2013-06-17 19:40:00,92.7,70.2,29.81,SSE,163,0.0,7.0,48,0.00,,SKC,0.00,VWS V14.01,2013-06-18 00:40:00,
2013-06-17 19:42:00,92.4,69.9,29.81,SSE,163,0.0,4.0,48,0.00,,SKC,0.00,VWS V14.01,2013-06-18 00:42:00,
2013-06-17 19:47:00,92.2,70.3,29.80,SSE,163,0.0,0.0,49,0.00,,SKC,0.00,VWS V14.01,2013-06-18 00:47:00,
2013-06-17 19:50:00,92.2,70.3,29.81,SSE,163,0.0,4.0,49,0.00,,SKC,0.00,VWS V14.01,2013-06-18 00:50:00,
2013-06-17 19:52:00,92.0,70.7,29.81,SSE,163,0.0,0.0,50,0.00,,SKC,0.00,VWS V14.01,2013-06-18 00:52:00,
2013-06-17 19:57:00,91.8,71.1,29.81,SSE,161,0.0,0.0,51,0.00,,SKC,0.00,VWS V14.01,2013-06-18 00:57:00,
2013-06-17 20:00:00,91.8,71.1,29.81,SSE,163,0.0,6.0,51,0.00,,SKC,0.00,VWS V14.01,2013-06-18 01:00:00,
2013-06-17 20:02:00,91.5,70.8,29.81,SSE,161,0.0,1.0,51,0.00,,SKC,0.00,VWS V14.01,2013-06-18 01:02:00,
2013-06-17 20:07:00,91.1,71.0,29.81,SSE,161,0.0,0.0,52,0.00,,SKC,0.00,VWS V14.01,2013-06-18 01:07:00,
2013-06-17 20:10:00,91.2,71.1,29.81,SSE,161,0.0,1.0,52,0.00,,SKC,0.00,VWS V14.01,2013-06-18 01:10:00,
2013-06-17 20:12:00,90.8,71.3,29.81,SSE,161,0.0,0.0,53,0.00,,SKC,0.00,VWS V14.01,2013-06-18 01:12:00,
2013-06-17 20:17:00,90.5,71.6,29.81,SSE,161,0.0,0.0,54,0.00,,SKC,0.00,VWS V14.01,2013-06-18 01:17:00,
2013-06-17 20:20:00,90.6,71.1,29.81,SSE,161,0.0,0.0,53,0.00,,SKC,0.00,VWS V14.01,2013-06-18 01:20:00,
2013-06-17 20:22:00,90.1,71.2,29.81,SSE,161,0.0,0.0,54,0.00,,SKC,0.00,VWS V14.01,2013-06-18 01:22:00,
2013-06-17 20:27:00,89.8,71.5,29.81,SSE,161,0.0,0.0,55,0.00,,SKC,0.00,VWS V14.01,2013-06-18 01:27:00,
2013-06-17 20:30:00,89.8,71.5,29.81,SSE,161,0.0,0.0,55,0.00,,SKC,0.00,VWS V14.01,2013-06-18 01:30:00,
2013-06-17 20:32:00,89.5,71.7,29.81,SSE,161,0.0,0.0,56,0.00,,SKC,0.00,VWS V14.01,2013-06-18 01:32:00,
2013-06-17 20:37:00,89.1,72.4,29.81,SSE,161,0.0,0.0,58,0.00,,SKC,0.00,VWS V14.01,2013-06-18 01:37:00,
2013-06-17 20:40:00,89.2,72.0,29.81,SSE,161,0.0,0.0,57,0.00,,SKC,0.00,VWS V14.01,2013-06-18 01:40:00,
2013-06-17 20:42:00,88.7,72.5,29.81,SSE,161,0.0,0.0,59,0.00,,SKC,0.00,VWS V14.01,2013-06-18 01:42:00,
2013-06-17 20:47:00,88.3,72.7,29.81,SSE,161,0.0,0.0,60,0.00,,SKC,0.00,VWS V14.01,2013-06-18 01:47:00,
2013-06-17 20:50:00,88.4,72.8,29.81,SSE,161,0.0,0.0,60,0.00,,SKC,0.00,VWS V14.01,2013-06-18 01:50:00,
2013-06-17 20:52:00,87.9,72.8,29.82,SSE,161,0.0,1.0,61,0.00,,SKC,0.00,VWS V14.01,2013-06-18 01:52:00,
2013-06-17 20:57:00,87.5,73.4,29.82,SSE,161,0.0,1.0,63,0.00,,SKC,0.00,VWS V14.01,2013-06-18 01:57:00,
2013-06-17 21:00:00,87.6,73.0,29.82,SSE,161,0.0,1.0,62,0.00,,SKC,0.00,VWS V14.01,2013-06-18 02:00:00,
2013-06-17 21:02:00,87.1,73.4,29.82,SSE,161,0.0,2.0,64,0.00,,SKC,0.00,VWS V14.01,2013-06-18 02:02:00,
2013-06-17 21:07:00,86.8,74.1,29.82,SSE,161,0.0,10.0,66,0.00,,SKC,0.00,VWS V14.01,2013-06-18 02:07:00,
2013-06-17 21:10:00,86.9,74.2,29.82,SSE,161,10.0,10.0,66,0.00,,SKC,0.00,VWS V14.01,2013-06-18 02:10:00,
2013-06-17 21:12:00,86.6,74.3,29.83,SSE,161,4.0,12.0,67,0.00,,SKC,0.00,VWS V14.01,2013-06-18 02:12:00,
2013-06-17 21:17:00,86.3,74.5,29.83,SSE,159,3.0,8.0,68,0.00,,SKC,0.00,VWS V14.01,2013-06-18 02:17:00,
2013-06-17 21:20:00,86.4,74.6,29.83,SSE,159,0.0,12.0,68,0.00,,SKC,0.00,VWS V14.01,2013-06-18 02:20:00,
2013-06-17 21:22:00,86.1,74.8,29.83,SSE,160,0.0,10.0,69,0.00,,SKC,0.00,VWS V14.01,2013-06-18 02:22:00,
2013-06-17 21:27:00,85.9,74.6,29.83,SSE,160,0.0,4.0,69,0.00,,SKC,0.00,VWS V14.01,2013-06-18 02:27:00,
2013-06-17 21:30:00,85.9,74.6,29.83,SSE,160,0.0,10.0,69,0.00,,SKC,0.00,VWS V14.01,2013-06-18 02:30:00,
2013-06-17 21:32:00,85.7,74.8,29.83,SSE,161,0.0,12.0,70,0.00,,SKC,0.00,VWS V14.01,2013-06-18 02:32:00,
2013-06-17 21:37:00,85.4,74.9,29.83,SSE,161,0.0,4.0,71,0.00,,SKC,0.00,VWS V14.01,2013-06-18 02:37:00,
2013-06-17 21:40:00,85.4,74.9,29.83,SSE,161,1.0,12.0,71,0.00,,SKC,0.00,VWS V14.01,2013-06-18 02:40:00,
2013-06-17 21:42:00,85.2,75.2,29.84,SSE,161,9.0,9.0,72,0.00,,SKC,0.00,VWS V14.01,2013-06-18 02:42:00,
2013-06-17 21:47:00,84.9,74.9,29.84,SSE,161,0.0,1.0,72,0.00,,SKC,0.00,VWS V14.01,2013-06-18 02:47:00,
2013-06-17 21:50:00,85.0,75.0,29.84,SSE,161,0.0,9.0,72,0.00,,SKC,0.00,VWS V14.01,2013-06-18 02:50:00,
2013-06-17 21:52:00,84.7,75.1,29.85,SSE,159,0.0,4.0,73,0.00,,SKC,0.00,VWS V14.01,2013-06-18 02:52:00,
2013-06-17 21:57:00,84.5,74.9,29.85,SSE,159,0.0,1.0,73,0.00,,SKC,0.00,VWS V14.01,2013-06-18 02:57:00,
2013-06-17 22:00:00,84.5,74.9,29.85,SSE,159,0.0,4.0,73,0.00,,SKC,0.00,VWS V14.01,2013-06-18 03:00:00,
2013-06-17 22:02:00,84.3,74.7,29.85,SSE,159,6.0,7.0,73,0.00,,SKC,0.00,VWS V14.01,2013-06-18 03:02:00,
2013-06-17 22:07:00,84.1,74.9,29.85,SSE,159,0.0,4.0,74,0.00,,SKC,0.00,VWS V14.01,2013-06-18 03:07:00,
2013-06-17 22:10:00,84.1,74.9,29.85,SSE,159,0.0,7.0,74,0.00,,SKC,0.00,VWS V14.01,2013-06-18 03:10:00,
2013-06-17 22:12:00,83.9,74.7,29.85,SSE,159,0.0,4.0,74,0.00,,SKC,0.00,VWS V14.01,2013-06-18 03:12:00,
2013-06-17 22:17:00,83.7,74.5,29.85,SSE,159,0.0,2.0,74,0.00,,SKC,0.00,VWS V14.01,2013-06-18 03:17:00,
2013-06-17 22:20:00,83.7,74.5,29.86,SSE,159,0.0,8.0,74,0.00,,SKC,0.00,VWS V14.01,2013-06-18 03:20:00,
2013-06-17 22:22:00,83.6,74.4,29.85,SSE,159,0.0,6.0,74,0.00,,SKC,0.00,VWS V14.01,2013-06-18 03:22:00,
2013-06-17 22:27:00,83.4,74.7,29.86,SSE,159,0.0,0.0,75,0.00,,SKC,0.00,VWS V14.01,2013-06-18 03:27:00,
2013-06-17 22:30:00,83.4,74.7,29.85,SSE,159,0.0,6.0,75,0.00,,SKC,0.00,VWS V14.01,2013-06-18 03:30:00,
2013-06-17 22:32:00,83.2,74.5,29.86,SSE,159,0.0,4.0,75,0.00,,SKC,0.00,VWS V14.01,2013-06-18 03:32:00,
2013-06-17 22:37:00,83.1,74.8,29.86,SSE,159,0.0,0.0,76,0.00,,SKC,0.00,VWS V14.01,2013-06-18 03:37:00,
2013-06-17 22:40:00,83.1,74.8,29.86,SSE,159,0.0,4.0,76,0.00,,SKC,0.00,VWS V14.01,2013-06-18 03:40:00,
2013-06-17 22:42:00,82.9,74.6,29.87,SSE,159,0.0,0.0,76,0.00,,SKC,0.00,VWS V14.01,2013-06-18 03:42:00,
2013-06-17 22:47:00,82.7,74.8,29.87,SSE,159,0.0,0.0,77,0.00,,SKC,0.00,VWS V14.01,2013-06-18 03:47:00,
2013-06-17 22:50:00,82.7,74.8,29.87,SSE,159,0.0,0.0,77,0.00,,SKC,0.00,VWS V14.01,2013-06-18 03:50:00,
2013-06-17 22:52:00,82.5,74.6,29.87,SSE,159,0.0,5.0,77,0.00,,SKC,0.00,VWS V14.01,2013-06-18 03:52:00,
2013-06-17 22:57:00,82.3,74.4,29.87,SSE,159,0.0,7.0,77,0.00,,SKC,0.00,VWS V14.01,2013-06-18 03:57:00,
2013-06-17 23:00:00,82.3,74.4,29.87,SSE,159,5.0,6.0,77,0.00,,SKC,0.00,VWS V14.01,2013-06-18 04:00:00,
2013-06-17 23:01:00,82.1,74.2,29.88,SSE,159,0.0,7.0,77,0.00,,SKC,0.00,VWS V14.01,2013-06-18 04:01:00,
2013-06-17 23:06:00,82.0,74.5,29.88,SSE,159,0.0,7.0,78,0.00,,SKC,0.00,VWS V14.01,2013-06-18 04:06:00,
2013-06-17 23:10:00,82.0,74.5,29.88,SSE,159,0.0,7.0,78,0.00,,SKC,0.00,VWS V14.01,2013-06-18 04:10:00,
2013-06-17 23:11:00,81.9,74.4,29.88,SSE,159,0.0,0.0,78,0.00,,SKC,0.00,VWS V14.01,2013-06-18 04:11:00,
2013-06-17 23:16:00,81.8,74.3,29.88,SSE,159,0.0,0.0,78,0.00,,SKC,0.00,VWS V14.01,2013-06-18 04:16:00,
2013-06-17 23:20:00,81.8,74.3,29.88,SSE,159,0.0,0.0,78,0.00,,SKC,0.00,VWS V14.01,2013-06-18 04:20:00,
2013-06-17 23:21:00,81.6,74.5,29.89,SSE,159,0.0,0.0,79,0.00,,SKC,0.00,VWS V14.01,2013-06-18 04:21:00,
2013-06-17 23:26:00,81.4,74.3,29.88,SSE,159,0.0,5.0,79,0.00,,SKC,0.00,VWS V14.01,2013-06-18 04:26:00,
2013-06-17 23:30:00,81.4,74.3,29.88,SSE,159,0.0,5.0,79,0.00,,SKC,0.00,VWS V14.01,2013-06-18 04:30:00,
2013-06-17 23:31:00,81.2,74.1,29.89,SSE,159,0.0,7.0,79,0.00,,SKC,0.00,VWS V14.01,2013-06-18 04:31:00,
2013-06-17 23:36:00,81.1,74.0,29.89,SSE,159,2.0,7.0,79,0.00,,SKC,0.00,VWS V14.01,2013-06-18 04:36:00,
2013-06-17 23:40:00,81.1,74.0,29.89,SSE,159,0.0,7.0,79,0.00,,SKC,0.00,VWS V14.01,2013-06-18 04:40:00,
2013-06-17 23:41:00,80.9,73.8,29.89,SSE,159,0.0,2.0,79,0.00,,SKC,0.00,VWS V14.01,2013-06-18 04:41:00,
2013-06-17 23:46:00,80.8,73.7,29.89,SSE,159,0.0,3.0,79,0.00,,SKC,0.00,VWS V14.01,2013-06-18 04:46:00,
2013-06-17 23:50:00,80.8,73.7,29.89,SSE,159,0.0,3.0,79,0.00,,SKC,0.00,VWS V14.01,2013-06-18 04:50:00,
2013-06-17 23:51:00,80.6,73.5,29.89,SSE,159,0.0,2.0,79,0.00,,SKC,0.00,VWS V14.01,2013-06-18 04:51:00,
2013-06-17 23:56:00,80.4,73.3,29.89,SSE,159,0.0,7.0,79,0.00,,SKC,0.00,VWS V14.01,2013-06-18 04:56:00,